Flag for U.S.A. Weather past 2 weeks in Everett, Washington, U.S.A.

Now
42 °F

Mostly cloudy.


Feels Like: 37 °F
Forecast: 42 / 54 °F
Wind: 9 mph from South

Location: Snohomish County Airport

Current Time: Mar 31, 2015 at 11:30:18 PM

Latest Report: Mar 31, 2015 at 10:53 PM


Visibility: 10 mi

Pressure: 30.19 "Hg

Humidity: 89%

Dew point: 39 °F

Location of EverettLocation

Historic Weather in Everett — Graph

°F

Everett temperature yesterday

Maximum temperature yesterday: 63 °F (at 3:53 PM)
Minimum temperature yesterday: 52 °F (at 6:53 AM)
Average temperature yesterday: 57 °F

Past Weeks' High & Low Weather Summary

 TemperatureHumidityPressure
High67 °F (Mar 26, 4:53 PM)93% (Mar 24, 3:53 AM)30.33 "Hg (Mar 24, 3:53 AM)
Low43 °F (Mar 17, 5:53 AM)43% (Mar 30, 3:53 PM)29.83 "Hg (Mar 31, 12:53 AM)
Average51 °F75%30.09 "Hg
* Reported Mar 16 9:53 PM — Mar 31 9:53 PM, Everett, Weather by CustomWeather, © 2015

Note: Actual official high and low records may vary slightly from our data, if they occured in-between our weather recording intervals... More about our weather records

Advertising

Everett weather history for previous 24 hours

 ConditionsComfort  
Time TempWeatherWind HumidityBarometerVisibility
9:53 PM
Tue, Mar 31
43 °FPartly cloudy.8 mph89%30.17 "Hg10 mi
8:53 PM43 °FOvercast.7 mph86%30.16 "Hg10 mi
8:00 PM45 °FLight rain. More clouds than sun.9 mph80%30.14 "Hg10 mi
6:58 PM47 °FMostly cloudy.9 mph74%30.13 "Hg10 mi
5:53 PM50 °FOvercast.No wind61%30.12 "Hg10 mi
4:53 PM50 °FMostly cloudy.7 mph61%30.11 "Hg10 mi
3:53 PM50 °FThundershowers. More clouds than sun.No wind61%30.11 "Hg10 mi
2:53 PM51 °FScattered clouds.5 mph59%30.11 "Hg10 mi
1:53 PM51 °FOvercast.No wind63%30.10 "Hg10 mi
12:53 PM48 °FBroken clouds.7 mph68%30.09 "Hg10 mi
12:00 PM44 °FLight rain. Cloudy.6 mph82%30.09 "Hg9 mi
10:53 AM44 °FLight rain. Mostly cloudy.5 mph89%30.07 "Hg7 mi
9:53 AM45 °FLight rain. Cloudy.3 mph80%30.04 "Hg9 mi
8:53 AM44 °FLight rain. Mostly cloudy.6 mph82%30.02 "Hg4 mi
7:53 AM45 °FLight rain. Mostly cloudy.3 mph80%30.01 "Hg6 mi
6:55 AM45 °FLight rain. Fog.No wind86%29.99 "Hg6 mi
5:53 AM45 °FLight rain. Mostly cloudy.7 mph86%29.97 "Hg9 mi
4:53 AM45 °FLight rain. Fog.6 mph86%29.94 "Hg6 mi
4:02 AM44 °FLight rain. Fog.8 mph93%29.90 "Hg6 mi
3:53 AM44 °FLight rain. Fog.9 mph89%29.90 "Hg3 mi
3:04 AM46 °FOvercast.8 mph89%29.87 "Hg10 mi
2:53 AM47 °FOvercast.13 mph86%29.86 "Hg10 mi
1:53 AM54 °FOvercast.12 mph69%29.83 "Hg10 mi
12:53 AM53 °FMostly cloudy.10 mph74%29.83 "Hg10 mi
11:53 PM
Mon, Mar 30
54 °FMostly cloudy.14 mph72%29.83 "Hg10 mi
Weather by CustomWeather, © 2015

See weather overviewHow to use our weather pages